Weather History for KMPZ - February, 2013

Change the Weather History Date:

Thursday, February 7, 2013

  Actual Average Record
Temperature  
Mean Temperature 35 °F -  
Max Temperature 39 °F 30 °F 62 °F (2009)
Min Temperature 31 °F 11 °F -10 °F (1972)
Degree Days  
Heating Degree Days 30    
Moisture  
Dew Point 34 °F    
Average Humidity 94    
Maximum Humidity 97    
Minimum Humidity 87    
Precipitation  
Precipitation 0.05 in - - ()
Sea Level Pressure  
Sea Level Pressure 29.96 in    
Wind  
Wind Speed 9 mph (SW)    
Max Wind Speed 18 mph    
Max Gust Speed 25 mph    
Visibility 4 miles    
Events Rain    
Averages and records for this station are not official NWS values.
T = Trace of Precipitation, MM = Missing Value Source: NWS Daily Summary

Daily Weather History Graph

Daily Weather History Graph

Search for Another Location

Airport or City:

Trip Planner

Search our weather history database for the weather conditions in past years. The results will help you decide how hot, cold, wet, or windy it might be!

Date:

Astronomy

Feb. 07, 2013 Rise Set
Actual Time 7:09 AM CST 5:31 PM CST
Civil Twilight 6:41 AM CST 5:59 PM CST
Nautical Twilight 6:08 AM CST 6:32 PM CST
Astronomical Twilight 5:36 AM CST 7:04 PM CST
Moon 4:50 AM CST (2/7) 2:55 PM CST (2/7)
Length of Visible Light 11h 18m
Length of Day
10h 21m
Waning Crescent, 9% of the Moon is Illuminated
Feb 7
Waning Crescent
Feb 10
New
Feb 17
First Quarter
Feb 25
Full
Mar 4
Last Quarter

Hourly Weather History & Observations

Time (CST) Temp. Windchill Dew Point Humidity Pressure Visibility Wind Dir Wind Speed Gust Speed Precip Events Conditions
12:15 AM 37.4 °F 31.4 °F 33.8 °F 87% 30.00 in 5.0 mi South 8.1 mph - 0.01 in Rain Heavy Rain
12:35 AM 37.0 °F 31.6 °F 34.2 °F 89% 29.99 in 5.0 mi SSE 6.9 mph - 0.02 in Rain Rain
12:55 AM 37.0 °F 29.8 °F 34.7 °F 91% 29.98 in 5.0 mi South 10.4 mph - 0.02 in Rain Light Rain
1:15 AM 37.6 °F 30.0 °F 34.7 °F 89% 29.97 in 7.0 mi South 11.5 mph - 0.01 in Rain Rain
1:35 AM 37.4 °F 29.8 °F 35.1 °F 91% 29.96 in 3.0 mi SSE 11.5 mph - 0.01 in Rain Rain
1:55 AM 37.4 °F 30.3 °F 35.1 °F 91% 29.96 in 5.0 mi SSE 10.4 mph - 0.01 in Rain Light Rain
2:15 AM 37.4 °F 30.8 °F 35.2 °F 92% 29.97 in 5.0 mi SSE 9.2 mph - N/A Rain Light Rain
2:35 AM 37.4 °F 30.8 °F 35.2 °F 92% 29.97 in 5.0 mi SSE 9.2 mph - N/A Rain Light Rain
2:55 AM 37.4 °F 32.1 °F 35.4 °F 93% 29.96 in 7.0 mi SSE 6.9 mph - 0.01 in Rain Light Rain
3:15 AM 37.4 °F 31.4 °F 34.9 °F 91% 29.96 in 10.0 mi SSE 8.1 mph - N/A   Overcast
3:35 AM 37.4 °F 31.4 °F 34.7 °F 90% 29.95 in 10.0 mi SSE 8.1 mph - N/A   Overcast
3:55 AM 37.2 °F 31.2 °F 34.3 °F 89% 29.94 in 10.0 mi SSE 8.1 mph - N/A   Overcast
4:15 AM 37.4 °F 30.8 °F 34.2 °F 88% 29.94 in 10.0 mi SSE 9.2 mph - N/A   Overcast
4:35 AM 37.6 °F 30.5 °F 34.2 °F 87% 29.94 in 10.0 mi SSE 10.4 mph - N/A   Overcast
4:55 AM 37.8 °F 29.8 °F 34.3 °F 87% 29.94 in 10.0 mi SSE 12.7 mph - N/A   Light Drizzle
5:15 AM 37.4 °F 30.3 °F 34.0 °F 87% 29.93 in 10.0 mi SSE 10.4 mph - N/A   Overcast
5:35 AM 37.6 °F 31.6 °F 34.0 °F 87% 29.93 in 10.0 mi SSE 8.1 mph - N/A   Overcast
5:55 AM 37.4 °F 31.4 °F 33.8 °F 87% 29.93 in 10.0 mi SSE 8.1 mph - N/A   Overcast
6:15 AM 37.0 °F 30.4 °F 34.0 °F 89% 29.93 in 7.0 mi SSE 9.2 mph - N/A   Light Drizzle
6:35 AM 36.7 °F 30.5 °F 34.3 °F 91% 29.93 in 7.0 mi SSE 8.1 mph - N/A Rain Light Rain
6:55 AM 36.9 °F 30.7 °F 34.9 °F 93% 29.93 in 5.0 mi SSE 8.1 mph - N/A Rain Light Rain
7:15 AM 36.9 °F 31.4 °F 35.6 °F 95% 29.93 in 3.0 mi SSE 6.9 mph - N/A Rain Light Rain
7:35 AM 36.7 °F 32.9 °F 35.6 °F 96% 29.93 in 3.0 mi SSE 4.6 mph - N/A Rain Rain
7:55 AM 36.5 °F 31.0 °F 35.6 °F 97% 29.93 in 3.0 mi NNE 6.9 mph - N/A Rain Light Rain
8:15 AM 36.7 °F 31.2 °F 35.8 °F 97% 29.93 in 2.5 mi ESE 6.9 mph - N/A   Light Drizzle
8:35 AM 37.0 °F 31.6 °F 36.0 °F 96% 29.93 in 2.5 mi ENE 6.9 mph - N/A   Light Drizzle
8:55 AM 37.0 °F 31.0 °F 36.0 °F 96% 29.93 in 3.0 mi SSE 8.1 mph - N/A Rain Rain
9:15 AM 37.2 °F 31.2 °F 36.0 °F 95% 29.93 in 2.0 mi SSE 8.1 mph - N/A Rain Rain
9:35 AM 37.0 °F 31.0 °F 36.0 °F 96% 29.92 in 2.0 mi SSE 8.1 mph - N/A Rain Light Rain
9:55 AM 37.0 °F 31.6 °F 36.1 °F 97% 29.93 in 2.0 mi SSE 6.9 mph - N/A   Drizzle
10:15 AM 37.0 °F 33.3 °F 36.0 °F 96% 29.93 in 2.0 mi South 4.6 mph - N/A   Drizzle
10:35 AM 36.9 °F 32.2 °F 35.8 °F 96% 29.93 in 1.5 mi South 5.8 mph - N/A Rain Rain
10:55 AM 37.0 °F 34.5 °F 36.1 °F 97% 29.93 in 1.0 mi ESE 3.5 mph - N/A Rain Light Rain
11:15 AM 37.4 °F 34.9 °F 36.5 °F 97% 29.93 in 1.0 mi SSE 3.5 mph - N/A Rain Rain
11:35 AM 37.2 °F 33.6 °F 36.5 °F 97% 29.92 in 1.0 mi SSE 4.6 mph - N/A Rain Light Rain
11:55 AM 37.4 °F 34.9 °F 36.5 °F 97% 29.91 in 1.2 mi South 3.5 mph - N/A Rain Light Rain
12:15 PM 37.4 °F 34.9 °F 36.5 °F 97% 29.91 in 1.2 mi SSE 3.5 mph - N/A Rain Light Rain
12:35 PM 37.4 °F 33.8 °F 36.5 °F 97% 29.91 in 1.2 mi SW 4.6 mph - N/A Rain Light Rain
12:55 PM 37.2 °F 34.7 °F 36.5 °F 97% 29.90 in 1.2 mi WSW 3.5 mph - 0.01 in Rain Rain
1:15 PM 37.6 °F 32.3 °F 36.9 °F 97% 29.90 in 1.5 mi NW 6.9 mph - N/A Rain Light Rain
1:35 PM 37.8 °F 35.3 °F 37.0 °F 97% 29.89 in 2.5 mi West 3.5 mph - N/A Rain Rain
1:55 PM 37.9 °F 34.4 °F 37.0 °F 97% 29.88 in 2.5 mi NW 4.6 mph - N/A   Light Drizzle
2:15 PM 38.3 °F 33.2 °F 37.0 °F 95% 29.88 in 3.0 mi NW 6.9 mph - N/A Rain Rain
2:35 PM 38.8 °F 34.6 °F 37.8 °F 96% 29.87 in 3.0 mi NW 5.8 mph - N/A   Drizzle
2:55 PM 39.2 °F 34.2 °F 38.1 °F 96% 29.88 in 4.0 mi NW 6.9 mph - N/A   Light Drizzle
3:15 PM 38.8 °F 30.8 °F 37.6 °F 95% 29.90 in 5.0 mi WNW 13.8 mph - N/A   Overcast
3:35 PM 38.7 °F 30.1 °F 37.4 °F 95% 29.90 in 5.0 mi NW 15.0 mph 21.9 mph N/A   Drizzle
3:55 PM 38.3 °F 29.3 °F 36.7 °F 94% 29.90 in 10.0 mi NW 16.1 mph - N/A   Light Drizzle
4:15 PM 37.6 °F 30.0 °F 36.1 °F 95% 29.91 in 10.0 mi NW 11.5 mph - N/A Rain Light Rain
4:35 PM 37.4 °F 30.3 °F 36.1 °F 95% 29.93 in 10.0 mi NW 10.4 mph - N/A   Light Drizzle
4:55 PM 37.2 °F 29.6 °F 35.6 °F 94% 29.94 in 10.0 mi WNW 11.5 mph 19.6 mph N/A   Overcast
5:15 PM 36.3 °F 26.8 °F 34.7 °F 94% 29.95 in 7.0 mi WNW 16.1 mph 23.0 mph N/A   Overcast
5:35 PM 35.6 °F 27.1 °F 34.0 °F 94% 29.96 in 5.0 mi NW 12.7 mph 19.6 mph N/A   Overcast
5:55 PM 35.1 °F 26.9 °F 33.8 °F 95% 29.98 in 3.0 mi NW 11.5 mph 21.9 mph N/A   Overcast
6:15 PM 34.9 °F 26.6 °F 33.4 °F 94% 29.99 in 3.0 mi NW 11.5 mph 20.7 mph N/A   Overcast
6:35 PM 34.9 °F 26.6 °F 33.3 °F 94% 30.00 in 3.0 mi NW 11.5 mph 17.3 mph N/A   Overcast
6:55 PM 34.7 °F 24.3 °F 32.9 °F 93% 30.02 in 2.5 mi NW 17.3 mph 25.3 mph N/A   Overcast
7:15 PM 33.8 °F 25.3 °F 32.4 °F 94% 30.02 in 2.0 mi NW 11.5 mph 18.4 mph N/A   Overcast
7:35 PM 33.3 °F 22.1 °F 32.0 °F 95% 30.03 in 2.0 mi NW 18.4 mph 24.2 mph N/A   Overcast
7:55 PM 32.9 °F 22.4 °F 31.8 °F 96% 30.04 in 2.0 mi NW 16.1 mph 21.9 mph N/A   Overcast
8:15 PM 32.2 °F 20.7 °F 31.1 °F 96% 30.05 in 2.0 mi NNW 18.4 mph 23.0 mph N/A   Overcast
8:35 PM 32.0 °F 22.1 °F 30.9 °F 96% 30.06 in 1.8 mi NW 13.8 mph - N/A   Overcast
8:55 PM 32.0 °F 23.6 °F 30.9 °F 96% 30.07 in 1.8 mi NW 10.4 mph 20.7 mph N/A   Overcast
9:15 PM 32.0 °F 22.1 °F 30.7 °F 95% 30.07 in 1.5 mi NW 13.8 mph 17.3 mph N/A   Overcast
9:35 PM 31.8 °F 22.8 °F 30.6 °F 95% 30.08 in 1.8 mi NW 11.5 mph 20.7 mph N/A   Overcast
9:55 PM 31.8 °F 20.2 °F 30.2 °F 94% 30.08 in 2.0 mi NW 18.4 mph 23.0 mph N/A   Overcast
10:15 PM 31.8 °F 20.6 °F 30.2 °F 94% 30.09 in 2.5 mi NNW 17.3 mph 23.0 mph N/A   Overcast
10:35 PM 32.0 °F 21.2 °F 29.7 °F 91% 30.09 in 3.0 mi NNW 16.1 mph 23.0 mph N/A   Overcast
10:55 PM 31.8 °F 22.8 °F 29.5 °F 91% 30.10 in 4.0 mi NW 11.5 mph - N/A   Overcast
11:15 PM 31.6 °F 21.6 °F 29.3 °F 91% 30.10 in 4.0 mi NNW 13.8 mph 23.0 mph N/A   Overcast
11:35 PM 31.8 °F 21.8 °F 29.7 °F 92% 30.11 in 4.0 mi NNW 13.8 mph 17.3 mph N/A   Overcast
11:55 PM 31.5 °F 20.5 °F 29.1 °F 91% 30.11 in 5.0 mi NNW 16.1 mph 20.7 mph N/A   Overcast